sat.trackr.live / text

‹ back to catalog

TIANMU-1 12

NORAD 58646 · 2023-205B

PAYLOAD ACTIVE UNKNOWN

§ Identity

Operator
Country
PRC
Launch date
2023-12-25
Launch site
JSC
Launch vehicle
Mass (kg)
RCS (m²)

Purposes: earth_obs

External: N2YO · Heavens-Above · Gunter

§ Orbital elements

Epoch: 2026-05-25T03:37:50.358720Z

Period
94.32 min
Inclination
97.3451°
Eccentricity
0.0009029
Mean motion
15.26671901 rev/d
Perigee alt
479.6 km
Apogee alt
492.0 km
Semi-major
6,863.9 km
B*
2.0603e-4
RAAN
166.8341°
Arg perigee
75.0183°
Mean anomaly
285.2055°
Rev number
13,399

§ Raw data

TIANMU-1 121 58646U 23205B   26145.15127730  .00005339  00000+0  20603-3 0  99982 58646  97.3451 166.8341 0009029  75.0183 285.2055 15.26671901133993

JSON: /api/v1/satellites/58646 · /tle

For live sub-satellite position, see the globe view (requires WebGL).

§ Visibility from observer

Set your observer location to see the next 7 days of passes ≥ 10°. The values pass through the URL so the page stays shareable.

No JS? Fill the form by hand. The geolocation button needs JavaScript.